Stations météo

réclame
Mon MeteoGroup
Herrera del Duque, Espagne (8264): Température de l'air & dewpoint: 15.01.2019 17:00:00 - 21.01.2019 17:00:00 (CET)Herrera del Duque, Espagne (8264): Vitesse du vent & gusts: 15.01.2019 17:00:00 - 21.01.2019 17:00:00 (CET)Herrera del Duque, Espagne (8264): Direction du vent: 15.01.2019 17:00:00 - 21.01.2019 17:00:00 (CET)Herrera del Duque, Espagne (8264): reduced air pressure: 15.01.2019 17:00:00 - 21.01.2019 17:00:00 (CET)Herrera del Duque, Espagne (8264): visibility: 15.01.2019 17:00:00 - 21.01.2019 17:00:00 (CET)Herrera del Duque, Espagne (8264): Ensoleillement: 15.01.2019 17:00:00 - 21.01.2019 17:00:00 (CET)Herrera del Duque, Espagne (8264): Quantités de précipitations: 15.01.2019 17:00:00 - 21.01.2019 17:00:00 (CET)
Date & Time tt [°C] td [°C] ff [km/h] ff [knt] fx [km/h] fx [knt] dd ppp [hPa] vv [km] sd [min] rr [mm]
21.01.2019 17:00:00 - - - - - - - - - - -
21.01.2019 16:00:00 13,7 -1,4 11 6 19 11 N 1020,5 20 60 0,0
21.01.2019 15:00:00 12,9 -1,2 7 4 19 11 N 1020,9 20 60 0,0
21.01.2019 14:00:00 11,8 0,2 6 4 16 8 W 1021,6 20 60 0,0
21.01.2019 13:00:00 10,4 0,2 4 2 11 6 NE 1022,5 20 60 -
21.01.2019 12:00:00 7,5 2,7 4 2 8 4 WSW 1023,7 20 60 0,0
21.01.2019 11:00:00 5,0 0,9 2 1 6 3 WSW 1023,7 20 60 0,0
21.01.2019 10:00:00 1,3 -0,7 3 2 6 4 NNW 1023,9 9 50 0,0
21.01.2019 09:00:00 -0,9 -2,2 4 2 6 3 SSE 1024,1 9 0 0,0
21.01.2019 08:00:00 -0,9 -2,2 4 2 7 4 N 1023,4 20 0 0,0
21.01.2019 07:00:00 0,0 -1,2 4 2 7 4 SSW 1022,7 20 0 -
21.01.2019 06:00:00 0,1 -1,4 4 2 6 3 WSW 1022,5 20 0 0,0
21.01.2019 05:00:00 0,5 -1,2 1 1 6 3 SE 1022,3 20 0 0,0
21.01.2019 04:00:00 1,9 0,2 5 3 8 4 S 1022,1 20 0 0,0
21.01.2019 03:00:00 1,1 -0,7 3 1 5 3 SSE 1022,4 20 0 0,0
21.01.2019 02:00:00 2,0 0,0 5 3 8 4 S 1022,1 20 0 0,0
21.01.2019 01:00:00 2,2 -0,5 3 1 6 3 SSE 1021,9 20 0 -
21.01.2019 00:00:00 4,0 0,4 3 1 7 4 S 1021,0 20 0 0,0
20.01.2019 23:00:00 5,8 0,9 6 4 10 6 SW 1020,0 20 0 0,0
20.01.2019 22:00:00 6,1 1,1 4 2 10 5 WSW 1019,6 20 0 0,0
20.01.2019 21:00:00 6,8 0,4 7 4 10 5 SW 1019,0 20 0 0,0
20.01.2019 20:00:00 7,7 1,7 6 3 8 4 WSW 1018,4 20 0 0,0
20.01.2019 19:00:00 8,7 2,5 3 2 11 6 SW 1017,7 20 0 -
20.01.2019 18:00:00 11,4 1,7 9 5 26 14 N 1016,5 20 60 0,0
20.01.2019 17:00:00 13,2 0,2 16 9 27 14 N 1015,6 20 58 0,0
20.01.2019 16:00:00 13,4 -0,3 20 11 31 17 N 1015,1 20 55 0,0
20.01.2019 15:00:00 13,6 0,2 19 11 29 16 N 1015,0 20 55 0,0
20.01.2019 14:00:00 13,3 3,4 16 9 26 14 N 1014,9 20 43 0,0
20.01.2019 13:00:00 12,7 3,0 11 6 23 13 NNE 1014,9 20 58 -
20.01.2019 12:00:00 11,9 4,3 13 7 23 13 NNE 1015,1 20 60 0,0
20.01.2019 11:00:00 10,0 5,5 5 3 9 5 ENE 1014,2 20 53 0,0
20.01.2019 10:00:00 8,6 7,0 8 4 13 7 NNW 1013,0 20 21 0,0
20.01.2019 09:00:00 8,3 7,0 5 3 11 6 NNW 1011,9 20 0 0,0
20.01.2019 08:00:00 8,9 7,3 9 5 18 10 NNW 1010,8 20 0 0,0
20.01.2019 07:00:00 9,6 8,4 10 5 21 11 WNW 1009,4 20 0 -
20.01.2019 06:00:00 9,9 8,7 9 5 25 14 WNW 1009,1 20 0 0,6
20.01.2019 05:00:00 9,9 8,5 15 8 29 15 W 1008,9 20 0 0,2
20.01.2019 04:00:00 9,7 8,3 10 5 20 11 W 1009,5 20 0 0,6
20.01.2019 03:00:00 9,7 8,1 12 7 27 15 WSW 1009,6 8 0 1,0
20.01.2019 02:00:00 9,3 8,1 11 6 26 14 SW 1010,1 9 0 2,0
20.01.2019 01:00:00 9,2 7,4 17 9 34 18 SSW 1010,7 20 0 -
20.01.2019 00:00:00 9,3 7,4 16 9 34 18 SW 1011,1 12 0 0,0
19.01.2019 23:00:00 9,2 7,3 16 9 36 19 SSW 1011,3 20 0 0,2
19.01.2019 22:00:00 9,4 7,6 23 13 38 21 SW 1011,4 6 0 1,2
19.01.2019 21:00:00 9,0 7,3 19 10 34 19 SSW 1012,3 4,0 0 1,0
19.01.2019 20:00:00 8,5 6,8 18 10 31 17 SSW 1012,8 8 0 0,6
19.01.2019 19:00:00 7,8 5,9 14 8 27 15 S 1013,5 3,8 0 -
19.01.2019 18:00:00 7,7 5,3 15 8 27 14 SSW 1014,3 11 0 0,2
19.01.2019 17:00:00 7,5 4,5 2 1 13 7 S 1015,2 18 0 0,0
19.01.2019 16:00:00 7,4 3,8 5 3 17 9 SSW 1016,0 20 0 0,0
19.01.2019 15:00:00 7,5 3,2 7 4 14 8 SSW 1016,5 20 0 0,0
19.01.2019 14:00:00 7,0 3,4 8 4 15 8 SW 1017,7 20 0 0,0
19.01.2019 13:00:00 5,8 3,8 6 3 10 5 NNW 1019,7 12 0 -
19.01.2019 12:00:00 3,9 2,7 4 2 9 5 SSE 1020,6 9 0 0,0
19.01.2019 11:00:00 2,3 1,5 4 2 7 4 WSW 1020,9 8 0 0,0
19.01.2019 10:00:00 0,6 0,0 3 2 4 2 ENE 1021,0 4,9 0 0,0
19.01.2019 09:00:00 -0,4 -1,2 1 1 6 3 NW 1020,9 0,4 0 0,0
19.01.2019 08:00:00 -0,8 -1,7 2 1 5 3 WSW 1020,8 1,0 0 0,0
19.01.2019 07:00:00 -0,9 -2,0 2 1 6 3 ENE 1020,6 0,5 0 -
19.01.2019 06:00:00 -0,3 -1,4 1 1 5 3 W 1020,7 0,1 0 0,0
19.01.2019 05:00:00 0,2 -1,2 4 2 8 4 WSW 1020,7 2,0 0 0,0
19.01.2019 04:00:00 0,3 -1,7 1 1 7 4 NE 1020,6 2,7 0 0,0
19.01.2019 03:00:00 1,9 0,6 6 4 9 5 SSW 1020,5 8 0 0,0
19.01.2019 02:00:00 2,0 0,0 3 1 5 3 E 1020,6 1,2 0 0,0
19.01.2019 01:00:00 2,7 0,0 3 2 9 5 N 1020,7 5 0 -
19.01.2019 00:00:00 3,3 0,6 1 1 7 4 ENE 1020,7 9 0 0,0
18.01.2019 23:00:00 5,8 2,3 3 2 10 6 S 1019,8 9 0 0,0
18.01.2019 22:00:00 6,1 1,9 3 2 7 4 SSW 1019,9 12 0 0,0
18.01.2019 21:00:00 6,8 1,9 5 3 8 4 WSW 1019,6 20 0 0,0
18.01.2019 20:00:00 7,0 1,5 5 3 9 5 W 1019,8 20 0 0,0
18.01.2019 19:00:00 7,6 1,9 3 2 15 8 WNW 1019,5 20 0 -
18.01.2019 18:00:00 8,2 2,1 10 5 19 11 WSW 1019,2 20 0 0,0
18.01.2019 17:00:00 8,6 1,3 11 6 23 13 WSW 1019,3 20 4 0,0
18.01.2019 16:00:00 9,7 1,5 12 7 22 12 WSW 1019,5 20 22 0,0
18.01.2019 15:00:00 9,2 2,1 5 3 10 5 SW 1020,2 20 0 0,0
18.01.2019 14:00:00 8,6 2,7 5 3 9 5 N 1020,9 20 8 0,0
18.01.2019 13:00:00 7,2 2,1 5 3 9 5 WNW 1022,0 20 16 -
18.01.2019 12:00:00 6,0 1,9 1 1 4 2 SE 1022,7 19 60 0,0
18.01.2019 11:00:00 2,6 1,1 2 1 6 3 SSW 1023,7 9 52 0,0
18.01.2019 10:00:00 -0,2 -1,7 2 1 3 2 NNE 1023,4 0,4 43 0,0
18.01.2019 09:00:00 -0,5 -1,7 2 1 5 3 SSW 1023,1 8 0 0,0
18.01.2019 08:00:00 -0,2 -1,4 4 2 5 3 SSE 1022,7 12 0 0,0
18.01.2019 07:00:00 0,3 -1,0 4 2 6 3 SSW 1022,1 7 0 -
18.01.2019 06:00:00 1,2 -0,5 3 2 6 3 WNW 1022,1 5 0 0,0
18.01.2019 05:00:00 1,1 -0,5 1 1 5 3 SSW 1022,0 10 0 0,0
18.01.2019 04:00:00 1,9 0,2 5 3 8 4 SSW 1022,3 11 0 0,0
18.01.2019 03:00:00 2,3 0,6 3 2 7 4 SW 1022,4 11 0 0,0
18.01.2019 02:00:00 2,1 -0,3 2 1 6 3 WNW 1022,3 7 0 0,0
18.01.2019 01:00:00 3,6 1,3 3 2 9 5 SE 1022,3 13 0 -
18.01.2019 00:00:00 4,2 1,7 3 2 6 3 S 1022,2 12 0 0,0
17.01.2019 23:00:00 4,4 1,9 3 1 6 3 SSE 1021,9 14 0 0,0
17.01.2019 22:00:00 5,0 1,9 4 2 9 5 SSW 1021,3 13 0 0,0
17.01.2019 21:00:00 7,3 3,2 2 1 8 5 WSW 1020,6 17 0 0,0
17.01.2019 20:00:00 8,2 3,6 6 3 9 5 WSW 1019,9 20 0 0,0
17.01.2019 19:00:00 8,9 3,6 4 2 8 5 NW 1019,3 20 0 -
17.01.2019 18:00:00 9,8 3,2 6 3 9 5 WNW 1018,7 20 1 0,0
17.01.2019 17:00:00 11,6 2,7 4 2 13 7 N 1017,8 20 54 0,0
17.01.2019 16:00:00 11,3 3,0 5 3 9 5 NNW 1017,8 19 38 0,0
17.01.2019 15:00:00 11,8 3,6 3 1 7 4 E 1017,7 20 49 0,0
17.01.2019 14:00:00 9,1 4,3 3 2 9 5 N 1018,7 15 40 0,0
17.01.2019 13:00:00 7,0 3,9 6 3 9 5 W 1020,2 6 29 -
17.01.2019 12:00:00 6,1 4,3 4 2 8 4 ENE 1020,8 6 0 0,0
17.01.2019 11:00:00 4,8 3,2 2 1 7 4 NNW 1021,2 7 0 0,0
17.01.2019 10:00:00 3,6 2,7 2 1 8 5 W 1020,5 5 0 0,0
17.01.2019 09:00:00 3,1 2,1 3 2 7 4 W 1020,0 1,6 0 0,0
17.01.2019 08:00:00 2,5 1,3 5 3 7 4 WSW 1020,0 4,6 0 0,0
17.01.2019 07:00:00 2,9 1,1 2 1 4 2 N 1019,4 2,6 0 -
17.01.2019 06:00:00 4,4 2,3 3 2 9 5 E 1019,0 7 0 0,0
17.01.2019 05:00:00 5,6 3,4 2 1 5 3 W 1019,0 8 0 0,0
17.01.2019 04:00:00 5,5 3,2 1 1 5 3 SSW 1019,3 9 0 0,0
17.01.2019 03:00:00 5,6 2,9 1 1 4 2 N 1019,4 14 0 0,0
17.01.2019 02:00:00 6,2 3,0 1 1 5 3 SW 1019,4 12 0 0,0
17.01.2019 01:00:00 6,6 3,0 3 2 6 3 SSE 1019,6 17 0 -
17.01.2019 00:00:00 6,6 3,0 2 1 5 3 S 1019,9 18 0 0,0
16.01.2019 23:00:00 6,7 2,9 3 2 7 4 S 1019,8 20 0 0,0
16.01.2019 22:00:00 6,7 2,7 2 1 8 5 E 1019,7 17 0 0,0
16.01.2019 21:00:00 7,8 2,7 3 2 7 4 SSW 1019,6 20 0 0,0
16.01.2019 20:00:00 7,9 3,0 4 2 5 3 SSW 1019,7 20 0 0,0
16.01.2019 19:00:00 8,3 2,9 3 2 7 4 WSW 1019,4 14 0 -
16.01.2019 18:00:00 9,0 2,3 6 4 11 6 W 1019,2 20 0 0,0
16.01.2019 17:00:00 9,5 2,9 4 2 14 7 SW 1019,0 20 0 0,0
16.01.2019 16:00:00 9,6 3,4 4 2 7 4 WNW 1019,2 20 0 0,0
16.01.2019 15:00:00 9,1 4,3 3 2 8 4 N 1019,6 17 8 0,0
16.01.2019 14:00:00 7,7 3,9 2 1 6 3 S 1020,6 15 0 0,0
16.01.2019 13:00:00 5,8 3,0 2 1 6 3 W 1021,7 16 0 -
16.01.2019 12:00:00 4,3 2,3 3 2 6 3 N 1022,6 18 28 0,0
16.01.2019 11:00:00 2,3 1,1 2 1 4 2 NE 1023,1 4,4 42 0,0
16.01.2019 10:00:00 0,5 -0,5 2 1 6 4 N 1023,0 0,4 38 0,0
16.01.2019 09:00:00 -0,6 -1,7 3 2 4 2 WSW 1022,9 8 0 0,0
16.01.2019 08:00:00 -0,5 -1,6 0 0 3 2 N - - 0 0,0
16.01.2019 07:00:00 0,2 -1,2 1 1 6 4 SE 1022,0 1,1 0 -
16.01.2019 06:00:00 0,8 -0,7 3 1 7 4 SSW 1021,9 13 0 0,0
16.01.2019 05:00:00 1,7 0,2 6 3 8 4 WSW 1022,0 17 0 0,0
16.01.2019 04:00:00 1,6 -0,3 2 1 7 4 SSW 1022,5 17 0 0,0
16.01.2019 03:00:00 1,9 -0,3 2 1 7 4 W 1022,5 20 0 0,0
16.01.2019 02:00:00 2,9 0,4 3 2 6 4 SSE 1022,3 20 0 0,0
16.01.2019 01:00:00 3,8 0,9 2 1 7 4 S 1022,3 20 0 -
16.01.2019 00:00:00 3,3 0,4 2 1 6 3 NE 1022,5 20 0 0,0
15.01.2019 23:00:00 4,8 1,3 1 1 8 5 WNW 1021,7 20 0 0,0
15.01.2019 22:00:00 4,9 1,3 2 1 5 3 SSE 1021,6 20 0 0,0
15.01.2019 21:00:00 6,0 1,7 1 1 8 4 S 1021,3 20 0 0,0
15.01.2019 20:00:00 6,8 1,9 2 1 9 5 SSE 1020,9 20 0 0,0
15.01.2019 19:00:00 8,5 3,0 4 2 8 5 S 1020,3 20 0 -
15.01.2019 18:00:00 13,3 3,0 7 4 10 5 WSW 1019,0 20 51 0,0
15.01.2019 17:00:00 16,9 3,6 3 1 6 3 WSW 1018,2 20 60 0,0

tt = Température de l'air
td = dewpoint
ff = Vitesse du vent
fx = gusts
dd = Direction du vent
ppp = reduced air pressure
vv = visibility
sd = Ensoleillement
rr = Quantités de précipitations

stations d'obs. à proximité